STARLINK-34100

Last updated on Thu Jul 03 2025 00:02:07 GMT+0000 (Coordinated Universal Time)

1 64385U 25127R 25183.58335648 -.01560788 00000+0 -18724-1 0 9993 2 64385 43.0004 155.3712 0001402 276.6299 335.9679 15.63122605 4154
UTC large
Height (km)
Speed (km/s)
/
Latitude / Longitude
Inclination (degrees)
Orbital Period (minutes)
Azimuth
Elevation
Range (km)
Doppler Factor

Next 0 passes for location: London (51.5072 / 0.1276)

Sorry there are no passes over London.